Погода Ефимовская

Погода Ефимовская : погода сейчас, прогноз погоды и архив. Всё, что Вы хотите узнать о погоде Ефимовская!

Поиск расширенной информации на нашем сайте:

Другие новости

Новости СМИ2

Главная страница сайта

Новости сайта

03.07.2017

Напоминаем, что на нашем специализированном сайте Метеоцентр.Азия вы можете получить высокодетализированные автоматические прогнозы погоды по пунктам России, СНГ и мира в авиационном формате (включающие направление и скорость ветра, видимость, явления погоды, количество и форму облачности, нижнюю и верхнюю границу облачности).


Погода Ефимовская - сегодня

Время (UTC), дата Ветер
(°,м/с) 
Видим.   Явления Облачность Т
(°С)
Тd
(°С)
f(%) Тe
(°С)
Pmin
(гПа)
dP
(гПа)
Po
(мм)
O2
(г/м3)
Тmin Tmax R s Состояние
почвы
03 20.10.17 310 (СЗ) н/о    н/о 
+1.5 +1.1 97 +2  1019.4  1.2  748  300  +1.5         
06 20.10.17 тихо ()   20000 м    10/10 300 м 
[St]
+1.8 +1.5 98 +2  1020.1  0.7  749  299  +1.5    0.0     
09 20.10.17 300 (СЗ) н/о    н/о 
+3.1 +2 92 +3  1020.5  0.5  749  298           
12 20.10.17 290 (З) н/о    н/о 
+3.4 +0.7 82 +2  1020.4  0.1  749  298           
15 20.10.17 320 (СЗ) н/о    н/о 
+0.6 -0.1 95 +1  1021.5  0.9  750  301           
18 20.10.17 320 (СЗ) 20000 м    10/10 360 м 
[St]
+0.1 -0.2 98 +1  1021.7  0.2  750  302    +4  0.4     
21 20.10.17 320 (СЗ) н/о    н/о 
-1.9 -1.9 100 -1  1022.2  0.4  750  305           
00 21.10.17 320 (СЗ) н/о    н/о 
-3.4 -3.4 100 -3  1022.6  0.2  750  306           
03 21.10.17 310 (СЗ) н/о    н/о 
-3.6 -3.7 99 -3  1022.7  0.1  750  307  -4         
06 21.10.17 310 (СЗ) 20000 м    6/0 средняя 
[Ac trans]
-3.1 -3.2 99 -3  1022.9  0.3  750  306  -4         
09 21.10.17 320 (СЗ) н/о    н/о 
-0.9 -1.6 95 -2  1023.1  0.3  751  304           
12 21.10.17 290 (З) н/о    н/о 
+0.1 -2.7 81 -1  1022.1  -0.8  750  302           
15 21.10.17 270 (З) н/о    н/о 
-2.2 -2.9 95 -2  1021.6  -0.7  749  305           
18 21.10.17 280 (З) 20000 м    3/0 средняя 
[Ac trans]
-5 -4.9 100 -5  1020.8  -1  749  308    +0.5       
21 21.10.17 тихо ()   н/о    н/о 
-4.4 -4.5 99 -4  1019.7  -1.1  748  307           
00 22.10.17 290 (З) н/о    н/о 
-0.3 -2.7 84 -2  1017.7  -1.6  747  302           
03 22.10.17 290 (З) н/о    н/о 
-0.5 -2.1 89 -2  1016.5  -1.2  746  301  -5.6         
06 22.10.17 290 (З) 20000 м    9/0 средняя 
[Ac trans]
-0.6 -1.6 93 -2  1015.7  -0.8  745  301  -5.6         
09 22.10.17 280 (З) н/о    н/о 
-0.5 -1.1 96 -1  1015.3  -0.3  745  301           
12 22.10.17 290 (З) н/о    н/о 
-0.2 -1.2 93 -1  1014.9  -0.4  745  300           
15 22.10.17 290 (З) н/о    н/о 
-0.7 -1.2 96 1015  745  301           
18 22.10.17 330 (СЗ) 20000 м    8/0 средняя 
[Ac trans]
-2.1 -2.3 99 -2  1016.1  745  303    -0  0.6     
21 22.10.17 320 (СЗ) н/о    н/о 
-1.8 -2.7 94 -3  1017.2  746  303           
00 23.10.17 тихо ()   н/о    н/о 
-1.9 -2.2 98 -2  1018.6  1.4  747  303           
03 23.10.17 310 (СЗ) н/о    н/о 
-1.8 -2.6 94 -1  1020.2  1.5  748  304  -2.2         
Время (UTC), дата Ветер
(°,м/с) 
Видим.   Явления Облачность Т
(°С)
Тd
(°С)
f(%) Тe
(°С)
Pmin
(гПа)
dP
(гПа)
Po
(мм)
O2
(г/м3)
Тmin Tmax R s Состояние
почвы

Для получения пояснительной информации подведите курсор к названию столбца.

ПОГОДА Ефимовская - архив

Всё, что Вы хотите узнать о погоде Ефимовская - удобно и подробно!

Выберите нужную дату (начиная с 1 января 2015* года) и нажмите кнопку "Найти".
Будут отображены архивные сводки погоды по пункту Ефимовская, начиная с указанной даты.


Отображать данные в формате CSV (для использования в таблицах Excel)


Внимание! Наш архив погоды предназначен исключительно для личного некоммерческого использования в познавательных целях. Если Вам необходимы официальные справки о состоянии погоды (для производственных, юридических, коммерческих и т.п. целей), обращайтесь в органы Росгидромета.

*Примечание: данная дата относится к архиву по метеостанциям СССР (Россия, СНГ, Балтия).
Архив по метеостанциям Зарубежной Европы и Азии (кроме Китая) хранится 10 дней, по другим регионам земного шара (Китай, Африка, Америка, Австралия, Океания) - 1 день.

Ефимовская - район местоположения метеостанции


Название, широта, долгота, высота метеостанции:
Ефимовская 59.5°ш. 34.7°д. 176 м над ур. моря [Российская Федерация]

Дополнительная информация

В oтличие oт бoльшинства пoгoдных сайтoв мы публикуем пoдрoбную метеoинфoрмацию в детальнoм прoфессиoнальнoм фoрмате.

Характеристики температуры и влажнoсти вoздуха измеряются на высoте 2 м в тени вдали oт зданий и деревьев.
Скoрoсть ветра измеряется на высoте 10 м (на урoвне рoста челoвека скoрoсть ветра ниже в 1.5-2 раза). Если метеoстанция нахoдится в гoрoде или в лесу, тo скoрoсть ветра занижена на 2-4 м/с пo сравнению с oткрытым местoм. Скoрoсть ветра над акватoриями крупных рек и oзёр, а также на вершинах хoлмoв на 2-5 м/с выше, чем в oбычных услoвиях.
Атмoсфернoе давление в разных тoчках местнoсти мoжет значительнo oтличаться oт давления на метеoстанции, в зависимoсти oт услoвий рельефа (при пoдъёме на 10 м давление пoнижается примернo на 1 мм рт.ст.).